Home > Weather > Niamey > Past weeks

Flag for Niger Past Weather in Niamey, Niger — Yesterday and Last 2 Weeks

Now
82 °F

Clear.


Feels Like: 86 °F
Forecast: 79 / 95 °F
Wind: 6 mph from Southwest

Location: Niamey-Aero

Current Time: Jul 29, 2016 at 3:10:35 AM

Latest Report: Jul 29, 2016 at 2:00 AM


Visibility: 10 mi

Pressure: 29.92 "Hg

Humidity: 66%

Dew Point: 70 °F

Location of NiameyLocation

Past Weather in Niamey — Graph

°F

Niamey Temperature Yesterday

Maximum temperature yesterday: 95 °F (at 4:00 PM)
Minimum temperature yesterday: 77 °F (at 3:00 AM)
Average temperature yesterday: 85 °F

High & Low Weather Summary for the Past Weeks

 TemperatureHumidityPressure
High97 °F (Jul 14, 3:00 PM)100% (Jul 19, 8:00 AM)29.98 "Hg (Jul 19, 8:00 AM)
Low73 °F (Jul 16, 9:00 AM)34% (Jul 28, 4:00 PM)29.74 "Hg (Jul 15, 5:00 PM)
Average85 °F65%29.87 "Hg
* Reported Jul 14 1:00 AM — Jul 29 1:00 AM, Niamey, Weather by CustomWeather, © 2016

Note: Actual official high and low records may vary slightly from our data, if they occured in-between our weather recording intervals... More about our weather records

Advertising

Niamey Weather History for the Previous 24 Hours

Scroll right to see more
 ConditionsComfort  
Time TempWeatherWind HumidityBarometerVisibility
1:00 AM
Fri, Jul 29
82 °FPassing clouds.6 mph66%29.95 "HgN/A
12:00 AM82 °FThunderstorms. Passing clouds.6 mph70%29.95 "HgN/A
11:00 PM
Thu, Jul 28
84 °FThunderstorms. Passing clouds.10 mph62%29.92 "HgN/A
10:00 PM86 °FThunderstorms. Passing clouds.9 mph59%29.92 "HgN/A
9:00 PM88 °FThunderstorms. Passing clouds.9 mph52%29.89 "HgN/A
8:00 PM90 °FPassing clouds.7 mph46%29.86 "HgN/A
7:00 PM91 °FScattered clouds.7 mph41%29.86 "HgN/A
6:00 PM93 °FPartly sunny.7 mph39%29.83 "HgN/A
5:00 PM95 °FPartly sunny.5 mph34%29.83 "HgN/A
4:00 PM95 °FPartly sunny.8 mph34%29.86 "HgN/A
3:00 PM93 °FPartly sunny.10 mph39%29.86 "HgN/A
2:00 PM93 °FPartly sunny.9 mph44%29.89 "HgN/A
1:00 PM91 °FPartly sunny.10 mph46%29.92 "HgN/A
12:00 PM90 °FPartly sunny.13 mph52%29.92 "HgN/A
11:00 AM88 °FScattered clouds.12 mph55%29.95 "HgN/A
10:00 AM84 °FSunny.12 mph62%29.95 "Hg10 mi
9:00 AM81 °FSunny.7 mph70%29.95 "Hg10 mi
8:00 AM79 °FSunny.9 mph79%29.92 "Hg10 mi
7:00 AM77 °FSunny.3 mph83%29.92 "Hg10 mi
6:00 AM77 °FClear.No wind89%29.89 "Hg10 mi
5:00 AM77 °FClear.1 mph89%29.89 "Hg10 mi
4:00 AM77 °FClear.2 mph89%29.89 "Hg10 mi
3:00 AM77 °FClear.6 mph89%29.89 "Hg10 mi
Weather by CustomWeather, © 2016

See weather overviewHow to use our weather pages